TimeCDT,TemperatureF,Dew PointF,Humidity,Sea Level PressureIn,VisibilityMPH,Wind Direction,Wind SpeedMPH,Gust SpeedMPH,PrecipitationIn,Events,Conditions,WindDirDegrees,DateUTC
12:14 AM,35.6,21.2,56,30.28,10.0,Calm,Calm,-,N/A,,Overcast,0,2013-03-27 05:14:00
12:33 AM,35.6,21.2,56,30.28,10.0,Calm,Calm,-,N/A,,Overcast,0,2013-03-27 05:33:00
12:53 AM,33.8,23.0,65,30.28,10.0,Calm,Calm,-,N/A,,Overcast,0,2013-03-27 05:53:00
1:13 AM,33.8,23.0,65,30.29,10.0,Calm,Calm,-,N/A,,Overcast,0,2013-03-27 06:13:00
1:33 AM,33.8,21.2,60,30.29,10.0,Calm,Calm,-,N/A,,Overcast,0,2013-03-27 06:33:00
1:54 AM,33.8,21.2,60,30.29,10.0,Calm,Calm,-,N/A,,Overcast,0,2013-03-27 06:54:00
2:13 AM,33.8,23.0,65,30.29,10.0,Calm,Calm,-,N/A,,Overcast,0,2013-03-27 07:13:00
2:33 AM,32.0,23.0,69,30.29,10.0,Calm,Calm,-,N/A,,Overcast,0,2013-03-27 07:33:00
2:53 AM,32.0,23.0,69,30.29,10.0,Calm,Calm,-,N/A,,Overcast,0,2013-03-27 07:53:00
3:13 AM,32.0,24.8,75,30.29,10.0,Calm,Calm,-,N/A,,Overcast,0,2013-03-27 08:13:00
3:34 AM,33.8,24.8,70,30.29,10.0,Calm,Calm,-,N/A,,Overcast,0,2013-03-27 08:34:00
3:53 AM,32.0,24.8,75,30.29,10.0,Calm,Calm,-,N/A,,Overcast,0,2013-03-27 08:53:00
4:14 AM,32.0,24.8,75,30.29,10.0,Calm,Calm,-,N/A,,Overcast,0,2013-03-27 09:14:00
4:34 AM,32.0,24.8,75,30.29,10.0,Calm,Calm,-,N/A,,Overcast,0,2013-03-27 09:34:00
4:53 AM,32.0,24.8,75,30.29,10.0,Calm,Calm,-,N/A,,Overcast,0,2013-03-27 09:53:00
5:13 AM,32.0,24.8,75,30.29,10.0,Calm,Calm,-,N/A,,Overcast,0,2013-03-27 10:13:00
5:34 AM,30.2,24.8,80,30.29,10.0,Calm,Calm,-,N/A,,Overcast,0,2013-03-27 10:34:00
5:53 AM,32.0,24.8,75,30.29,10.0,Calm,Calm,-,N/A,,Overcast,0,2013-03-27 10:53:00
6:13 AM,30.2,24.8,80,30.30,10.0,Calm,Calm,-,N/A,,Overcast,0,2013-03-27 11:13:00
6:34 AM,30.2,24.8,80,30.30,10.0,Calm,Calm,-,N/A,,Overcast,0,2013-03-27 11:34:00
6:53 AM,32.0,24.8,75,30.31,10.0,Calm,Calm,-,N/A,,Overcast,0,2013-03-27 11:53:00
7:13 AM,32.0,24.8,75,30.31,10.0,Calm,Calm,-,N/A,,Overcast,0,2013-03-27 12:13:00
7:34 AM,32.0,24.8,75,30.31,10.0,Calm,Calm,-,N/A,,Overcast,0,2013-03-27 12:34:00
7:53 AM,30.2,24.8,80,30.32,10.0,Calm,Calm,-,N/A,,Overcast,0,2013-03-27 12:53:00
8:14 AM,32.0,24.8,75,30.32,10.0,Calm,Calm,-,N/A,,Overcast,0,2013-03-27 13:14:00
8:33 AM,32.0,24.8,75,30.32,10.0,Calm,Calm,-,N/A,,Overcast,0,2013-03-27 13:33:00
8:53 AM,33.8,24.8,70,30.32,10.0,Calm,Calm,-,N/A,,Overcast,0,2013-03-27 13:53:00
9:14 AM,33.8,26.6,75,30.32,10.0,Calm,Calm,-,N/A,,Overcast,0,2013-03-27 14:14:00
9:33 AM,33.8,24.8,70,30.33,10.0,Calm,Calm,-,N/A,,Overcast,0,2013-03-27 14:33:00
9:54 AM,35.6,23.0,60,30.33,10.0,Calm,Calm,-,N/A,,Overcast,0,2013-03-27 14:54:00
10:14 AM,37.4,21.2,52,30.33,10.0,Calm,Calm,-,N/A,,Overcast,0,2013-03-27 15:14:00
10:33 AM,35.6,21.2,56,30.33,10.0,Calm,Calm,-,N/A,,Overcast,0,2013-03-27 15:33:00
10:54 AM,37.4,21.2,52,30.33,10.0,Calm,Calm,-,N/A,,Overcast,0,2013-03-27 15:54:00
11:14 AM,39.2,19.4,45,30.34,10.0,Calm,Calm,-,N/A,,Overcast,0,2013-03-27 16:14:00
11:33 AM,39.2,17.6,42,30.34,10.0,Calm,Calm,-,N/A,,Overcast,0,2013-03-27 16:33:00
11:54 AM,39.2,12.2,33,30.34,10.0,Calm,Calm,-,N/A,,Overcast,0,2013-03-27 16:54:00
12:14 PM,39.2,10.4,31,30.33,10.0,ESE,3.5,-,N/A,,Overcast,120,2013-03-27 17:14:00
12:33 PM,39.2,17.6,42,30.33,10.0,SSE,3.5,-,N/A,,Scattered Clouds,160,2013-03-27 17:33:00
12:53 PM,39.2,14.0,36,30.33,10.0,Calm,Calm,-,N/A,,Mostly Cloudy,0,2013-03-27 17:53:00
1:14 PM,39.2,15.8,39,30.33,10.0,Calm,Calm,-,N/A,,Scattered Clouds,0,2013-03-27 18:14:00
1:33 PM,39.2,15.8,39,30.33,10.0,Calm,Calm,-,N/A,,Scattered Clouds,0,2013-03-27 18:33:00
1:53 PM,41.0,17.6,39,30.32,10.0,Calm,Calm,-,N/A,,Scattered Clouds,0,2013-03-27 18:53:00
2:14 PM,39.2,21.2,49,30.32,10.0,ESE,6.9,-,N/A,,Clear,110,2013-03-27 19:14:00
2:33 PM,39.2,12.2,33,30.31,10.0,South,3.5,-,N/A,,Clear,180,2013-03-27 19:33:00
2:54 PM,41.0,19.4,42,30.31,10.0,ESE,4.6,-,N/A,,Clear,110,2013-03-27 19:54:00
3:14 PM,39.2,21.2,49,30.31,10.0,East,4.6,-,N/A,,Scattered Clouds,100,2013-03-27 20:14:00
3:33 PM,41.0,21.2,45,30.30,10.0,SE,3.5,-,N/A,,Scattered Clouds,130,2013-03-27 20:33:00
3:54 PM,42.8,17.6,36,30.30,10.0,East,3.5,-,N/A,,Clear,90,2013-03-27 20:54:00
4:14 PM,42.8,15.8,34,30.30,10.0,Calm,Calm,-,N/A,,Clear,0,2013-03-27 21:14:00
4:33 PM,42.8,19.4,39,30.29,10.0,Calm,Calm,-,N/A,,Clear,0,2013-03-27 21:33:00
4:54 PM,42.8,12.2,29,30.29,10.0,Calm,Calm,-,N/A,,Clear,0,2013-03-27 21:54:00
5:13 PM,42.8,17.6,36,30.29,10.0,SE,3.5,-,N/A,,Clear,130,2013-03-27 22:13:00
5:33 PM,42.8,17.6,36,30.29,10.0,ESE,3.5,-,N/A,,Clear,120,2013-03-27 22:33:00
5:54 PM,42.8,12.2,29,30.29,10.0,SE,3.5,-,N/A,,Clear,140,2013-03-27 22:54:00
6:13 PM,42.8,14.0,31,30.29,10.0,SE,3.5,-,N/A,,Clear,140,2013-03-27 23:13:00
6:33 PM,41.0,15.8,36,30.29,10.0,SSE,4.6,-,N/A,,Clear,150,2013-03-27 23:33:00
6:54 PM,41.0,15.8,36,30.29,10.0,SE,4.6,-,N/A,,Clear,140,2013-03-27 23:54:00
7:13 PM,37.4,17.6,45,30.29,10.0,SSE,3.5,-,N/A,,Clear,150,2013-03-28 00:13:00
7:33 PM,39.2,14.0,36,30.29,10.0,South,4.6,-,N/A,,Clear,170,2013-03-28 00:33:00
7:54 PM,35.6,19.4,52,30.29,10.0,SSW,6.9,-,N/A,,Clear,200,2013-03-28 00:54:00
8:13 PM,37.4,17.6,45,30.29,10.0,SW,5.8,-,N/A,,Clear,220,2013-03-28 01:13:00
8:33 PM,35.6,17.6,48,30.29,10.0,SSW,4.6,-,N/A,,Clear,210,2013-03-28 01:33:00
8:53 PM,35.6,17.6,48,30.29,10.0,SW,5.8,-,N/A,,Clear,220,2013-03-28 01:53:00
9:13 PM,33.8,23.0,65,30.30,10.0,North,5.8,-,N/A,,Clear,360,2013-03-28 02:13:00
9:34 PM,33.8,26.6,75,30.30,10.0,Calm,Calm,-,N/A,,Clear,0,2013-03-28 02:34:00
9:53 PM,33.8,24.8,70,30.31,10.0,NNE,3.5,-,N/A,,Clear,30,2013-03-28 02:53:00
10:13 PM,30.2,24.8,80,30.31,10.0,Calm,Calm,-,N/A,,Clear,0,2013-03-28 03:13:00
10:34 PM,32.0,24.8,75,30.31,10.0,Calm,Calm,-,N/A,,Clear,0,2013-03-28 03:34:00
10:53 PM,30.2,23.0,75,30.31,10.0,Calm,Calm,-,N/A,,Clear,0,2013-03-28 03:53:00
11:13 PM,28.4,23.0,80,30.31,10.0,Calm,Calm,-,N/A,,Clear,0,2013-03-28 04:13:00
11:34 PM,28.4,23.0,80,30.31,10.0,Calm,Calm,-,N/A,,Clear,0,2013-03-28 04:34:00
11:53 PM,28.4,23.0,80,30.31,10.0,Calm,Calm,-,N/A,,Clear,0,2013-03-28 04:53:00